Find Starlink 31183

NORAD ID: 58747 Int'l Des: 2024-005 Owner: SPXS Country: US Constellation: starlink operational
LEOCIRCULAR

Live-Position

3D-Globus wird geladen...

Über Starlink 31183

Beschreibung wird geladen...

Nächste Überflüge

Passes for default location (London). Set your location on the main map for personalized predictions.

Höhenverlauf

Loading altitude history...

Zweizeiliger Elementsatz

1 58747U 24005V 26124.86968791 .00000843 00000-0 40175-4 0 9997
2 58747 43.0012 262.6601 0001336 271.5642 88.5057 15.27569772129136
Epoch: 4. Mai 2026 • Age: 19 hours

Aktueller Status

Höhe 484.2 km
Geschwindigkeit 7.62 km/s
Subsatellitenpunkt -9.24°S, 150.05°E
Startdatum 7. Jan. 2024
Alter 2.3 years
Typ internet

Technische Details

Klassifizierung Payload
Masse 730.00 kg
Trockenmasse 700.00 kg
Gesamtmasse 730.00 kg
Länge 0.30 m
Durchmesser 4.10 m
Spannweite 29.00 m
Form Box + pan
Hersteller SPXS
Bus-Typ Starlink V2M
Phasenstatus In Orbit
Besitzer/Staat SPXS/US

Most Searched